TimeEDT,TemperatureF,Dew PointF,Humidity,Sea Level PressureIn,VisibilityMPH,Wind Direction,Wind SpeedMPH,Gust SpeedMPH,PrecipitationIn,Events,Conditions,WindDirDegrees,DateUTC
12:56 AM,75.9,64.9,69,30.07,10.0,ESE,5.8,-,N/A,,Clear,120,2013-08-06 04:56:00
1:56 AM,75.0,66.0,73,30.05,10.0,SSE,5.8,-,N/A,,Clear,150,2013-08-06 05:56:00
2:56 AM,73.9,66.0,76,30.05,10.0,South,3.5,-,N/A,,Clear,170,2013-08-06 06:56:00
3:56 AM,73.0,64.9,76,30.04,10.0,Calm,Calm,-,N/A,,Clear,0,2013-08-06 07:56:00
4:56 AM,73.9,66.9,79,30.03,10.0,SSE,4.6,-,N/A,,Scattered Clouds,150,2013-08-06 08:56:00
5:56 AM,72.0,66.9,84,30.03,10.0,West,3.5,-,0.00,,Clear,260,2013-08-06 09:56:00
6:56 AM,73.9,68.0,82,30.06,10.0,Calm,Calm,-,N/A,,Clear,0,2013-08-06 10:56:00
7:56 AM,75.9,71.1,85,30.08,10.0,Calm,Calm,-,N/A,,Partly Cloudy,0,2013-08-06 11:56:00
8:56 AM,80.1,68.0,67,30.07,10.0,Calm,Calm,-,N/A,,Clear,0,2013-08-06 12:56:00
9:56 AM,80.1,66.9,64,30.08,10.0,Calm,Calm,-,N/A,,Clear,0,2013-08-06 13:56:00
10:56 AM,80.1,66.0,62,30.08,10.0,East,4.6,-,N/A,,Clear,80,2013-08-06 14:56:00
11:56 AM,82.0,66.9,60,30.09,10.0,ENE,6.9,-,N/A,,Clear,60,2013-08-06 15:56:00
12:56 PM,82.0,69.1,65,30.10,10.0,ENE,8.1,-,N/A,,Clear,60,2013-08-06 16:56:00
1:56 PM,82.9,68.0,60,30.09,10.0,ESE,9.2,-,N/A,,Clear,120,2013-08-06 17:56:00
2:56 PM,84.0,64.9,53,30.07,10.0,ESE,8.1,-,N/A,,Mostly Cloudy,120,2013-08-06 18:56:00
3:56 PM,84.0,66.0,55,30.06,10.0,ESE,11.5,-,N/A,,Scattered Clouds,120,2013-08-06 19:56:00
4:56 PM,82.9,66.0,56,30.08,10.0,ESE,6.9,-,N/A,,Scattered Clouds,120,2013-08-06 20:56:00
5:56 PM,82.0,64.9,56,30.07,10.0,SE,8.1,-,N/A,,Overcast,140,2013-08-06 21:56:00
6:56 PM,82.0,66.9,60,30.07,10.0,SSE,9.2,-,N/A,,Mostly Cloudy,150,2013-08-06 22:56:00
7:56 PM,79.0,68.0,69,30.08,10.0,SSE,5.8,-,N/A,,Scattered Clouds,150,2013-08-06 23:56:00
8:56 PM,78.1,69.1,74,30.08,10.0,SSE,4.6,-,N/A,,Clear,150,2013-08-07 00:56:00
9:56 PM,75.9,69.1,79,30.10,10.0,Calm,Calm,-,N/A,,Clear,0,2013-08-07 01:56:00
10:56 PM,75.9,69.1,79,30.10,10.0,Calm,Calm,-,N/A,,Clear,0,2013-08-07 02:56:00
11:56 PM,75.9,69.1,79,30.10,10.0,Calm,Calm,-,N/A,,Scattered Clouds,0,2013-08-07 03:56:00